DW6267 Weather Reports


Display with metric or nautical units.
time (UTC)temp
F
wind
direction
speed
MPH
gust
MPH
rain 1hr
in
rain 24hr
in
rain mn
in
humidity
%
barometer
mb
20260903100352 47 246 0.0 0.0 0.00 0.00 0.00 100 1005.8
20260903090340 49 246 0.0 0.0 0.00 0.00 0.00 100 1005.5
20260903080357 49 246 0.0 0.0 0.00 0.00 0.00 100 1006.0
20260903070332 49 246 0.0 0.0 0.00 0.00 0.00 100 1004.6
20260903060337 49 246 0.0 0.0 0.00 0.00 0.13 100 1004.9
20260903050337 49 246 0.0 0.0 0.00 0.00 0.13 100 1004.1
20260903040343 50 246 0.0 0.0 0.00 0.00 0.12 100 1003.8
20260903030355 50 246 0.0 0.0 0.00 0.00 0.12 100 1004.0
20260903020339 52 246 0.0 0.0 0.00 0.00 0.12 99 1003.8
20260903010336 55 251 0.0 0.0 0.00 0.00 0.02 84 1002.1
20260903000340 58 84 0.0 0.0 0.00 0.00 0.00 81 1002.3
20260902230348 60 84 0.0 0.0 0.00 0.00 0.00 64 1001.8
20260902220408 66 115 0.0 0.0 0.00 0.00 0.00 42 1001.3
20260902210348 66 132 1.0 0.0 0.00 0.00 0.00 39 1001.8
20260902200345 67 150 1.0 0.0 0.00 0.00 0.00 38 1001.9
20260902190349 65 103 1.0 0.0 0.00 0.00 0.00 45 1003.1
20260902180339 62 117 0.0 0.0 0.00 0.00 0.00 58 1003.7
20260902170338 57 97 0.0 0.0 0.00 0.00 0.00 73 1004.1
20260902160335 51 97 0.0 0.0 0.00 0.00 0.00 90 1004.2
20260902150343 48 97 0.0 0.0 0.00 0.00 0.00 96 1005.1
20260902140347 48 97 0.0 0.0 0.00 0.00 0.00 99 1005.0
20260902130409 49 97 0.0 0.0 0.00 0.00 0.00 96 1005.0
20260902120340 50 97 0.0 0.0 0.00 0.00 0.00 92 1005.9
20260902110358 52 97 0.0 0.0 0.00 0.00 0.00 87 1006.5